EN

Hourly Weather Abakan

Today, 19 June, Saturday

Time Temperature Precipitation Wind Pressure Humidity
00:00 +20°C° 0 mm 1 mps 731 mmHg 70%
01:00 +19°C° 0 mm 1 mps 730 mmHg 71%
02:00 +19°C° 0 mm 1 mps 730 mmHg 72%
03:00 +19°C° 0 mm 1 mps 730 mmHg 74%
04:00 +19°C° 0 mm 1 mps 730 mmHg 73%
05:00 +20°C° 0 mm 1 mps 730 mmHg 72%
06:00 +21°C° 0 mm 1 mps 731 mmHg 71%
07:00 +22°C° 0 mm 1 mps 731 mmHg 67%
08:00 +24°C° 0 mm 1 mps 730 mmHg 63%
09:00 +25°C° 0 mm 2 mps 730 mmHg 59%
10:00 +27°C° 0 mm 2 mps 730 mmHg 55%
11:00 +28°C° 0 mm 2 mps 730 mmHg 52%
12:00 +29°C° 0 mm 2 mps 730 mmHg 47%
13:00 +30°C° 0 mm 2 mps 729 mmHg 44%
14:00 +30°C° 0 mm 2 mps 729 mmHg 41%
15:00 +31°C° 0 mm 2 mps 728 mmHg 37%
16:00 +30°C° 0 mm 2 mps 728 mmHg 45%
17:00 +29°C° 0 mm 2 mps 728 mmHg 52%
18:00 +29°C° 0 mm 3 mps 728 mmHg 59%
19:00 +27°C° 0 mm 2 mps 728 mmHg 63%
20:00 +25°C° 0 mm 2 mps 728 mmHg 68%
21:00 +23°C° 0 mm 1 mps 728 mmHg 72%
22:00 +22°C° 0 mm 1 mps 727 mmHg 74%
23:00 +22°C° 0 mm 1 mps 727 mmHg 76%

Tomorrow, 20 June, Sunday

Time Temperature Precipitation Wind Pressure Humidity
00:00 +21°C° 0 mm 1 mps 727 mmHg 77%
01:00 +20°C° 0 mm 1 mps 727 mmHg 79%
02:00 +20°C° 0 mm 1 mps 727 mmHg 80%
03:00 +19°C° 0 mm 1 mps 727 mmHg 81%
04:00 +20°C° 0 mm 1 mps 727 mmHg 79%
05:00 +20°C° 0 mm 1 mps 728 mmHg 76%
06:00 +20°C° 0 mm 2 mps 728 mmHg 73%
07:00 +21°C° 0 mm 2 mps 728 mmHg 70%
08:00 +24°C° 0 mm 2 mps 728 mmHg 67%
09:00 +25°C° 0 mm 2 mps 728 mmHg 64%
10:00 +25°C° 0 mm 3 mps 729 mmHg 63%
11:00 +26°C° 0 mm 4 mps 729 mmHg 62%
12:00 +27°C° 0 mm 4 mps 729 mmHg 61%
13:00 +26°C° 0.1 mm 5 mps 729 mmHg 62%
14:00 +26°C° 0.1 mm 5 mps 729 mmHg 63%
15:00 +24°C° 0.1 mm 6 mps 729 mmHg 64%
16:00 +22°C° 0.6 mm 6 mps 729 mmHg 70%
17:00 +20°C° 0.6 mm 6 mps 729 mmHg 77%
18:00 +17°C° 0.6 mm 6 mps 730 mmHg 83%
19:00 +16°C° 4.3 mm 6 mps 731 mmHg 87%
20:00 +15°C° 4.3 mm 5 mps 732 mmHg 90%
21:00 +14°C° 4.3 mm 4 mps 733 mmHg 94%
22:00 +13°C° 0.9 mm 4 mps 733 mmHg 93%
23:00 +13°C° 0.9 mm 4 mps 734 mmHg 92%

Day after tomorrow, 21 June, Monday

Time Temperature Precipitation Wind Pressure Humidity
00:00 +12°C° 0.9 mm 3 mps 734 mmHg 92%
01:00 +12°C° 2.1 mm 3 mps 734 mmHg 92%
02:00 +12°C° 2.1 mm 3 mps 734 mmHg 93%
03:00 +11°C° 2.1 mm 3 mps 734 mmHg 93%
04:00 +11°C° 2.9 mm 4 mps 735 mmHg 93%
05:00 +9°C° 2.9 mm 5 mps 736 mmHg 93%
06:00 +8°C° 2.9 mm 6 mps 737 mmHg 93%
07:00 +8°C° 1.5 mm 5 mps 737 mmHg 91%
08:00 +9°C° 1.5 mm 5 mps 737 mmHg 89%
09:00 +10°C° 1.5 mm 4 mps 737 mmHg 87%
10:00 +11°C° 0.1 mm 3 mps 737 mmHg 79%
11:00 +13°C° 0.1 mm 2 mps 737 mmHg 72%
12:00 +15°C° 0.1 mm 2 mps 737 mmHg 65%
13:00 +16°C° 0 mm 2 mps 736 mmHg 62%
14:00 +17°C° 0 mm 2 mps 736 mmHg 59%
15:00 +17°C° 0 mm 2 mps 735 mmHg 56%
16:00 +17°C° 0 mm 3 mps 735 mmHg 60%
17:00 +17°C° 0 mm 4 mps 735 mmHg 64%
18:00 +17°C° 0 mm 4 mps 735 mmHg 68%
19:00 +14°C° 0 mm 4 mps 735 mmHg 73%
20:00 +13°C° 0 mm 3 mps 735 mmHg 79%
21:00 +12°C° 0 mm 2 mps 735 mmHg 84%
22:00 +10°C° 0 mm 2 mps 735 mmHg 84%
23:00 +10°C° 0 mm 2 mps 734 mmHg 84%

22 June, Tuesday

Time Temperature Precipitation Wind Pressure Humidity
00:00 +9°C° 0 mm 2 mps 734 mmHg 84%
01:00 +9°C° 0 mm 2 mps 734 mmHg 84%
02:00 +9°C° 0 mm 2 mps 733 mmHg 84%
03:00 +9°C° 0 mm 2 mps 733 mmHg 84%
04:00 +9°C° 0 mm 2 mps 732 mmHg 81%
05:00 +11°C° 0 mm 1 mps 732 mmHg 78%
06:00 +12°C° 0 mm 1 mps 732 mmHg 75%
07:00 +13°C° 0 mm 1 mps 732 mmHg 71%
08:00 +14°C° 0 mm 1 mps 732 mmHg 68%
09:00 +15°C° 0 mm 1 mps 732 mmHg 64%
10:00 +16°C° 0 mm 2 mps 732 mmHg 62%
11:00 +18°C° 0 mm 2 mps 733 mmHg 59%
12:00 +19°C° 0 mm 3 mps 733 mmHg 56%
13:00 +19°C° 0 mm 4 mps 733 mmHg 58%
14:00 +19°C° 0 mm 5 mps 734 mmHg 59%
15:00 +19°C° 0 mm 6 mps 734 mmHg 60%
16:00 +16°C° 0.9 mm 5 mps 735 mmHg 69%
17:00 +16°C° 0.9 mm 3 mps 735 mmHg 79%
18:00 +14°C° 0.9 mm 2 mps 736 mmHg 89%
19:00 +14°C° 0 mm 2 mps 736 mmHg 89%
20:00 +13°C° 0 mm 2 mps 736 mmHg 90%
21:00 +13°C° 0 mm 1 mps 737 mmHg 90%
22:00 +13°C° 0 mm 1 mps 736 mmHg 90%
23:00 +13°C° 0 mm 1 mps 736 mmHg 90%

23 June, Wednesday

Time Temperature Precipitation Wind Pressure Humidity
00:00 +12°C° 0 mm 1 mps 736 mmHg 90%
01:00 +12°C° 0 mm 1 mps 736 mmHg 90%
02:00 +12°C° 0 mm 1 mps 736 mmHg 90%
03:00 +12°C° 0 mm 1 mps 736 mmHg 90%
04:00 +12°C° 0 mm 2 mps 737 mmHg 87%
05:00 +13°C° 0 mm 2 mps 737 mmHg 84%
06:00 +12°C° 0 mm 3 mps 737 mmHg 81%
07:00 +13°C° 0 mm 3 mps 738 mmHg 75%
08:00 +14°C° 0 mm 4 mps 738 mmHg 70%
09:00 +15°C° 0 mm 4 mps 738 mmHg 64%
10:00 +17°C° 0 mm 4 mps 738 mmHg 60%
11:00 +18°C° 0 mm 4 mps 738 mmHg 57%
12:00 +19°C° 0 mm 4 mps 737 mmHg 53%
13:00 +19°C° 0 mm 3 mps 737 mmHg 51%
14:00 +20°C° 0 mm 3 mps 737 mmHg 49%
15:00 +20°C° 0 mm 2 mps 737 mmHg 47%
16:00 +20°C° 0 mm 2 mps 737 mmHg 51%
17:00 +20°C° 0 mm 2 mps 737 mmHg 55%
18:00 +20°C° 0 mm 2 mps 736 mmHg 59%
19:00 +18°C° 0.1 mm 2 mps 736 mmHg 66%
20:00 +16°C° 0.1 mm 2 mps 736 mmHg 73%
21:00 +14°C° 0.1 mm 1 mps 736 mmHg 80%
22:00 +14°C° 0 mm 1 mps 736 mmHg 81%
23:00 +13°C° 0 mm 1 mps 736 mmHg 82%

24 June, Thursday

Time Temperature Precipitation Wind Pressure Humidity
00:00 +13°C° 0 mm 1 mps 736 mmHg 83%
01:00 +13°C° 0 mm 1 mps 736 mmHg 85%
02:00 +12°C° 0 mm 1 mps 736 mmHg 86%
03:00 +12°C° 0 mm 1 mps 736 mmHg 87%
04:00 +13°C° 0 mm 1 mps 735 mmHg 84%
05:00 +13°C° 0 mm 1 mps 735 mmHg 82%
06:00 +14°C° 0 mm 1 mps 735 mmHg 79%
07:00 +16°C° 0 mm 2 mps 735 mmHg 74%
08:00 +17°C° 0 mm 2 mps 734 mmHg 69%
09:00 +19°C° 0 mm 3 mps 734 mmHg 64%
10:00 +19°C° 0 mm 3 mps 734 mmHg 60%
11:00 +20°C° 0 mm 3 mps 733 mmHg 57%
12:00 +21°C° 0 mm 3 mps 733 mmHg 53%
13:00 +21°C° 0 mm 3 mps 733 mmHg 52%
14:00 +22°C° 0 mm 3 mps 733 mmHg 52%
15:00 +22°C° 0 mm 3 mps 733 mmHg 51%
16:00 +21°C° 0.1 mm 3 mps 733 mmHg 57%
17:00 +21°C° 0.1 mm 2 mps 733 mmHg 62%
18:00 +21°C° 0.1 mm 1 mps 734 mmHg 67%
19:00 +19°C° 0 mm 1 mps 734 mmHg 73%
20:00 +18°C° 0 mm 1 mps 734 mmHg 79%
21:00 +15°C° 0 mm 1 mps 734 mmHg 85%
22:00 +15°C° 0 mm 1 mps 734 mmHg 85%
23:00 +15°C° 0 mm 1 mps 734 mmHg 85%
Show more